{"data":{"norad_id":65815,"epoch":"2026-05-25T01:39:24.452064Z","epoch_age_seconds":59164,"freshness":"FRESH","line1":"1 65815U 25219A   26145.06903301  .00000039  00000+0  38984-4 0  9991","line2":"2 65815  98.6762  86.2890 0001551  94.8367 265.2987 14.19915625 34107","mean_motion":14.19915625,"eccentricity":0.0001551,"inclination_deg":98.6762,"raan_deg":86.289,"arg_perigee_deg":94.8367,"mean_anomaly_deg":265.2987,"bstar":3.8984e-5,"rev_number":3410,"period_min":101.41447665244,"perigee_km":824.52085000513,"apogee_km":826.75546105838,"semimajor_km":7203.7751555318,"source":"CELESTRAK","updated_at":"2026-05-25T13:38:12.263017Z"}}